Terug naar catalogus

IRS 1C

ActiefWetenschapSSO
NORAD 23751·PAYLOAD·🇮🇳 India

Gelanceerd Dec 28, 1995 vanaf Baikonur Cosmodrome

Loading…

Volgende Passages (komende 24 uur)

TLE

VersSource: Space-Track

Epoch: Sep 14, 2026, 11:38 UTC

1 23751U 95072A   26257.48492671  .00000042  00000-0  39133-4 0  9993
2 23751  99.0199 278.8185 0001205  90.7724 269.3592 14.23585514594274

Volg IRS 1C in realtime met AllMySat

Download on the App Store